Volver al catálogo

PSLV DEB

ActivoPO
NORAD 27142·DEBRIS·🇮🇳 India

Lanzado Oct 22, 2001 desde Satish Dhawan Space Centre

Loading…

Próximos Pases (próximas 24 horas)

TLE

ActualizadoSource: Space-Track

Época: Sep 14, 2026, 01:16 UTC

1 27142U 01049CN  26257.05332116  .00000235  00000-0  10107-3 0  9995
2 27142  97.3551 283.3296 0274096 287.7567  69.3873 14.13816690271545

Sigue PSLV DEB en tiempo real con AllMySat

Download on the App Store